Montclair, CA Past Weather

Last 30 Days

High: 61ºf @12:55 PM    Low: 40ºf @4:55 AM     Approx. Precipitation / Rain Total: in.
Time (PST)Temp. (ºf)Humidity (%)Dew Point (ºf)Barometer (inHG)Wind Speed (mph)Wind DirectionWind Gust (mph)1hr. Precip / Rain Total (in.)Snow Depth
12:55 PM612726.78-7.82wsw13.03--
11:55 AM584033.82-6.08wsw13.03--
10:55 AM565841.43-5.21sw11.3--
9:55 AM546843.68-4.34sw8.69--
8:55 AM536842.72-1.74se5.21--
7:55 AM449041.26-1.74nne6.95--
6:55 AM409338.14-2.61n6.08--
5:55 AM419339.13-3.48n6.08--
4:55 AM409438.41-1.74nne6.08--
3:55 AM419539.68-1.74nne4.34--
2:55 AM429640.94-2.61n5.21--
1:55 AM449542.66-1.74ne6.95--
12:55 AM459443.38-2.61wnw7.82--
High: 61ºf @2:55 PM    Low: 44ºf @2:55 AM     Approx. Precipitation / Rain Total: in.
Time (PST)Temp. (ºf)Humidity (%)Dew Point (ºf)Barometer (inHG)Wind Speed (mph)Wind DirectionWind Gust (mph)1hr. Precip / Rain Total (in.)Snow Depth
11:55 PM479144.51-0.87n2.61--
10:55 PM469243.81---3.48--
9:55 PM469143.52-2.61nnw4.34--
8:55 PM478843.63-2.61wnw4.34--
7:55 PM498143.43-1.74w3.48--
6:55 PM517242.3-1.74w5.21--
5:55 PM536541.55-2.61wsw10.43--
4:55 PM556945.02-6.08sw9.56--
3:55 PM576846.54-3.48wsw9.56--
2:55 PM615745.65-6.08wsw11.3--
1:55 PM586546.3-6.08wnw9.56--
12:55 PM586747.1-4.34ssw8.69--
11:55 AM568350.91-5.21sw9.56--
10:55 AM548850.53-4.34ssw7.82--
9:55 AM519048.17-0.87se2.61--
8:55 AM509448.34---2.61--
7:55 AM489546.64-2.61ne9.56--
6:55 AM469444.37---3.48--
5:55 AM467739.2-0.87ne4.34--
4:55 AM467638.87-1.74ne3.48--
3:55 AM457537.56-0.87ne4.34--
2:55 AM447536.59-1.74nne4.34--
1:55 AM447436.25-0.87nne3.48--
12:55 AM467036.77-1.74nne4.34--
High: 70ºf @3:55 PM    Low: 43ºf @4:55 AM     Approx. Precipitation / Rain Total: in.
Time (PST)Temp. (ºf)Humidity (%)Dew Point (ºf)Barometer (inHG)Wind Speed (mph)Wind DirectionWind Gust (mph)1hr. Precip / Rain Total (in.)Snow Depth
11:55 PM476636.24-1.74n4.34--
10:55 PM486536.8-1.74n5.21--
9:55 PM486336.01---3.48--
8:55 PM515736.31-2.61ne3.48--
7:55 PM525435.88-1.74n6.08--
6:55 PM564434.4-2.61sw9.56--
5:55 PM564635.51-1.74n5.21--
4:55 PM653234.42-3.48wsw6.08--
3:55 PM702330.49-2.61sw9.56--
2:55 PM692430.7-6.08wsw10.43--
12:55 PM692228.57-4.34sw8.69--
11:55 AM682227.74-2.61wsw6.95--
10:55 AM682328.82-1.74se5.21--
9:55 AM672429.02-1.74se5.21--
8:55 AM622828.52-0.87e4.34--
7:55 AM494629.13-2.61ne4.34--
6:55 AM435628.39-2.61ne5.21--
5:55 AM445327.98-3.48ne6.08--
4:55 AM435728.82-2.61nne5.21--
3:55 AM445327.98-2.61ne4.34--
2:55 AM455228.45-3.48ne5.21--
1:55 AM464726.91-1.74nne5.21--
12:55 AM455328.91-2.61n5.21--
High: 70ºf @2:55 PM    Low: 47ºf @11:55 PM     Approx. Precipitation / Rain Total: in.
Time (PST)Temp. (ºf)Humidity (%)Dew Point (ºf)Barometer (inHG)Wind Speed (mph)Wind DirectionWind Gust (mph)1hr. Precip / Rain Total (in.)Snow Depth
11:55 PM474727.83-1.74nne4.34--
10:55 PM494226.92-2.61ne4.34--
9:55 PM484628.22-2.61ne4.34--
8:55 PM494729.66-1.74nne5.21--
7:55 PM514228.72-3.48n5.21--
6:55 PM544432.58-0.87ene5.21--
5:55 PM563830.76-2.61n5.21--
4:55 PM593632.09-2.61n6.95--
3:55 PM691925.03-3.48w6.95--
2:55 PM701723.18-2.61ssw6.08--
1:55 PM682025.43-1.74s5.21--
12:55 PM671923.38-2.61ese8.69--
11:55 AM672024.61-2.61s6.95--
10:55 AM662226.07-2.61ese6.08--
9:55 AM612928.52-2.61ene6.08--
8:55 AM583228.31-1.74ene4.34--
7:55 AM523827.19-2.61ne5.21--
6:55 AM474627.31-1.74nne4.34--
5:55 AM484326.58-1.74nne6.95--
4:55 AM474325.68-2.61n6.08--
3:55 AM484125.44-1.74nne4.34--
2:55 AM484024.84-2.61ne6.08--
1:55 AM493824.51-2.61n6.08--
12:55 AM503825.4-2.61n6.95--
High: 68ºf @1:55 PM    Low: 39ºf @5:55 AM     Approx. Precipitation / Rain Total: in.
Time (PST)Temp. (ºf)Humidity (%)Dew Point (ºf)Barometer (inHG)Wind Speed (mph)Wind DirectionWind Gust (mph)1hr. Precip / Rain Total (in.)Snow Depth
11:55 PM552822.5-2.61ne6.08--
10:55 PM513826.3-2.61nne6.08--
9:55 PM514128.14-1.74n5.21--
8:55 PM523827.19-2.61ne7.82--
6:55 PM523827.19-2.61nne4.34--
5:55 PM553427.15-2.61nne5.21--
4:55 PM583631.2-3.48nnw4.34--
3:55 PM671720.76-2.61sw6.08--
2:55 PM671517.84-2.61se6.95--
1:55 PM681721.57-2.61ssw6.08--
12:55 PM671822.1-2.61s6.95--
11:55 AM661517.04-1.74w6.08--
10:55 AM652225.23-0.87ssw5.21--
9:55 AM612221.89-0.87ssw4.34--
8:55 AM573126.67---2.61--
7:55 AM454927-1.74ne4.34--
6:55 AM405022.88-2.61nne5.21--
5:55 AM395423.78-2.61nne4.34--
4:55 AM414722.33-1.74ene4.34--
3:55 AM424522.22-2.61nne6.08--
2:55 AM424421.69-2.61nne4.34--
1:55 AM434221.5-2.61ne5.21--
12:55 AM434221.5-2.61nne6.08--
High: 66ºf @3:55 PM    Low: 37ºf @3:55 AM     Approx. Precipitation / Rain Total: in.
Time (PST)Temp. (ºf)Humidity (%)Dew Point (ºf)Barometer (inHG)Wind Speed (mph)Wind DirectionWind Gust (mph)1hr. Precip / Rain Total (in.)Snow Depth
11:55 PM443820.04-2.61nne5.21--
10:55 PM434221.5-1.74nne6.95--
9:55 PM453720.31-2.61ne5.21--
8:55 PM463922.45-2.61nne5.21--
7:55 PM473923.34-4.34n6.08--
6:55 PM474023.94-2.61nne5.21--
5:55 PM513222.19-3.48n5.21--
4:55 PM602625.02-1.74nw6.95--
3:55 PM661313.76-2.61wsw7.82--
2:55 PM651211.17-3.48ssw8.69--
1:55 PM65107.12-3.48ssw8.69--
12:55 PM63129.61-4.34ssw12.17--
11:55 AM631311.4-5.21sw8.69--
10:55 AM611614.5-2.61ssw5.21--
9:55 AM581713.45-1.74sw4.34--
8:55 AM552115.8-0.87s3.48--
7:55 AM443115.33-2.61n9.56--
6:55 AM383814.68-2.61nne9.56--
5:55 AM383714.07-4.34n9.56--
4:55 AM374417.14-3.48nne7.82--
3:55 AM374517.66-2.61ne7.82--
2:55 AM384418.05-1.74ne7.82--
1:55 AM403917.06-1.74nne8.69--
12:55 AM423617-2.61ene7.82--
High: 63ºf @3:55 PM    Low: 37ºf @5:55 AM     Approx. Precipitation / Rain Total: in.
Time (PST)Temp. (ºf)Humidity (%)Dew Point (ºf)Barometer (inHG)Wind Speed (mph)Wind DirectionWind Gust (mph)1hr. Precip / Rain Total (in.)Snow Depth
11:55 PM423617-4.34n8.69--
10:55 PM462814.74-1.74sw8.69--
9:55 PM53168.04-4.34ene12.17--
8:55 PM50188.19-3.48n7.82--
7:55 PM443618.78-5.21n8.69--
6:55 PM473218.69-2.61nne7.82--
5:55 PM512617.34-0.87e7.82--
4:55 PM581814.75-3.48sw8.69--
3:55 PM631514.64-3.48wsw7.82--
2:55 PM621310.61-5.21ssw9.56--
1:55 PM621310.61-2.61s9.56--
12:55 PM621513.84-2.61se8.69--
11:55 AM582320.42-1.74sse7.82--
10:55 AM562924.2-2.61sse8.69--
9:55 AM553628.54-2.61se6.08--
8:55 AM514731.49-2.61wsw4.34--
7:55 AM436030.08-2.61ene6.95--
6:55 AM377730.47-3.48n6.95--
5:55 AM377630.15-2.61ne6.95--
3:55 AM387731.44-3.48n6.95--
2:55 AM398033.36-3.48nne6.95--
1:55 AM398434.58-1.74nne5.21--
12:55 AM399637.96-4.34n6.95--
High: 56ºf @12:55 PM    Low: 41ºf @6:55 AM     Approx. Precipitation / Rain Total: in.
Time (PST)Temp. (ºf)Humidity (%)Dew Point (ºf)Barometer (inHG)Wind Speed (mph)Wind DirectionWind Gust (mph)1hr. Precip / Rain Total (in.)Snow Depth
7:55 PM449141.54---5.21--
6:55 PM458239.84-0.87n6.08--
5:55 PM497240.37-3.48w16.51--
4:55 PM525536.34-4.34w10.43--
3:55 PM554131.74---10.43--
2:55 PM554835.67-4.34w9.56--
1:55 PM554534.05-2.61sse8.69--
12:55 PM564333.82-4.34se11.3--
11:55 AM554735.14-3.48ese10.43--
10:55 AM535637.73-3.48ene6.08--
9:55 AM497039.65-2.61ene7.82--
8:55 AM487239.41-3.48ene6.95--
7:55 AM448539.79-2.61ne5.21--
6:55 AM419238.86-1.74nne4.34--
5:55 AM428738.42-2.61ne7.82--
4:55 AM439541.67-2.61ne6.95--
3:55 AM448940.97-3.48ene8.69--
2:55 AM449041.26-3.48ne8.69--
1:55 AM449141.54-2.61ene6.08--
12:55 AM439541.67-0.87nne3.48--
High: 51ºf @11:55 AM    Low: 42ºf @8:55 PM     Approx. Precipitation / Rain Total: in.
Time (PST)Temp. (ºf)Humidity (%)Dew Point (ºf)Barometer (inHG)Wind Speed (mph)Wind DirectionWind Gust (mph)1hr. Precip / Rain Total (in.)Snow Depth
11:55 PM439842.47-0.87e2.61--
10:55 PM439742.21-0.87ene2.61--
8:55 PM429741.21---4.34--
7:55 PM439641.94-2.61n3.48--
6:55 PM449642.93-1.74nne3.48--
5:55 PM469344.09-0.87nne3.48--
4:55 PM469243.81-1.74nw8.69--
3:55 PM469344.09-4.34w10.43--
2:55 PM479445.36-5.21w11.3--
1:55 PM479345.08-4.34wsw10.43--
12:55 PM489346.07-2.61nw4.34--
11:55 AM517944.72-1.74nw5.21--
10:55 AM509047.18-0.87nw5.21--
9:55 AM507642.74---3.48--
8:55 AM497641.77-1.74nw3.48--
7:55 AM478342.11-0.87wnw5.21--
6:55 AM468642.05-0.87nw6.08--
5:55 AM478041.16-3.48wnw6.95--
4:55 AM477940.83-2.61wnw7.82--
3:55 AM478141.48-4.34wnw9.56--
2:55 AM478943.93-3.48w7.82--
1:55 AM479345.08-2.61w6.08--
12:55 AM479445.36-0.87wsw3.48--
High: 62ºf @1:55 PM    Low: 41ºf @3:55 AM     Approx. Precipitation / Rain Total: in.
Time (PST)Temp. (ºf)Humidity (%)Dew Point (ºf)Barometer (inHG)Wind Speed (mph)Wind DirectionWind Gust (mph)1hr. Precip / Rain Total (in.)Snow Depth
11:55 PM478843.63---3.48--
10:55 PM488844.62-3.48wsw9.56--
9:55 PM489045.21-6.95wsw11.3--
8:55 PM489245.79-6.08w9.56--
7:55 PM479044.22-1.74wsw8.69--
6:55 PM498544.69-1.74wsw9.56--
5:55 PM507843.41-2.61wnw8.69--
4:55 PM564635.51-1.74nw4.34--
3:55 PM623332.57-1.74nw6.08--
2:55 PM623231.8-2.61sw6.95--
1:55 PM623332.57-2.61sse7.82--
12:55 PM613432.43-2.61se6.95--
11:55 AM583832.54-2.61sse6.95--
10:55 AM564132.64-2.61ssw6.08--
9:55 AM564032.02-1.74sse6.08--
3:55 AM416530.15-1.74nne5.21--
2:55 AM426029.13-2.61nne4.34--
1:55 AM426229.94-2.61nne4.34--
12:55 AM426129.54-1.74nne3.48--
High: 68ºf @2:55 PM    Low: 41ºf @5:55 AM     Approx. Precipitation / Rain Total: in.
Time (PST)Temp. (ºf)Humidity (%)Dew Point (ºf)Barometer (inHG)Wind Speed (mph)Wind DirectionWind Gust (mph)1hr. Precip / Rain Total (in.)Snow Depth
11:55 PM435929.66-2.61n5.21--
10:55 PM455630.26-1.74nne5.21--
9:55 PM465731.63-1.74e6.08--
8:55 PM475330.77-3.48n6.08--
7:55 PM475531.68-1.74nne5.21--
6:55 PM505032.1-1.74nne5.21--
5:55 PM524430.77-2.61nnw4.34--
4:55 PM622828.52-2.61w7.82--
3:55 PM672226.9-4.34wsw8.69--
2:55 PM681924.21-4.34sw8.69--
1:55 PM681721.57-2.61ssw8.69--
12:55 PM671822.1-1.74s6.08--
11:55 AM641920.92-2.61ssw6.95--
10:55 AM642022.13-0.87sse5.21--
9:55 AM632021.31-1.74sse6.08--
8:55 AM592422.27-3.48ene6.08--
7:55 AM464927.92---4.34--
6:55 AM434623.65-1.74nne6.08--
5:55 AM415425.64-1.74nne5.21--
2:55 AM454625.48-2.61ne6.08--
1:55 AM474225.11-5.21n7.82--
12:55 AM435427.51-1.74nne5.21--
High: 67ºf @2:55 PM    Low: 45ºf @2:55 AM     Approx. Precipitation / Rain Total: in.
Time (PST)Temp. (ºf)Humidity (%)Dew Point (ºf)Barometer (inHG)Wind Speed (mph)Wind DirectionWind Gust (mph)1hr. Precip / Rain Total (in.)Snow Depth
11:55 PM455127.97-1.74nne4.34--
10:55 PM474526.77-1.74nne6.08--
9:55 PM484326.58-2.61nne5.21--
8:55 PM494226.92-2.61nne5.21--
7:55 PM503926.03-2.61nne5.21--
6:55 PM513826.3-1.74nne6.08--
5:55 PM533727.43-3.48n6.08--
4:55 PM612726.78-2.61wnw6.95--
3:55 PM662023.78-5.21wsw9.56--
2:55 PM672024.61-3.48sw9.56--
1:55 PM652124.12-4.34wsw10.43--
12:55 PM652225.23-3.48ssw12.17--
11:55 AM622222.73-6.95sw13.9--
10:55 AM622424.8-4.34s11.3--
9:55 AM602625.02-6.08wsw13.03--
8:55 AM592624.17-6.95wsw12.17--
7:55 AM552519.84-5.21sw13.03--
6:55 AM542518.99-4.34nne32.15--
5:55 AM562318.74-15.64wnw26.94--
4:55 AM513020.67-4.34wnw14.77--
3:55 AM552620.76-9.56wnw25.2--
2:55 AM454826.5-5.21nnw8.69--
1:55 AM493925.13-5.21n7.82--
12:55 AM523525.21-2.61wsw8.69--
High: 69ºf @2:55 PM    Low: 42ºf @6:55 AM     Approx. Precipitation / Rain Total: in.
Time (PST)Temp. (ºf)Humidity (%)Dew Point (ºf)Barometer (inHG)Wind Speed (mph)Wind DirectionWind Gust (mph)1hr. Precip / Rain Total (in.)Snow Depth
11:55 PM503825.4-2.61sw7.82--
10:55 PM503926.03-2.61wnw9.56--
9:55 PM484628.22-3.48nne8.69--
8:55 PM504227.82-1.74ne6.08--
7:55 PM484628.22-4.34nnw6.08--
6:55 PM514128.14-3.48n8.69--
5:55 PM553829.86-2.61nne5.21--
4:55 PM603431.55-2.61nnw6.95--
3:55 PM681924.21-3.48wsw6.08--
2:55 PM691620.94-2.61sw8.69--
1:55 PM681721.57-4.34sw8.69--
12:55 PM671720.76-3.48sw8.69--
11:55 AM652124.12-4.34sw7.82--
10:55 AM642426.49-4.34s7.82--
9:55 AM632728.5-0.87ssw4.34--
8:55 AM603028.48---3.48--
7:55 AM474727.83-1.74nne5.21--
6:55 AM425125.2-2.61nne5.21--
5:55 AM425125.2-2.61ne5.21--
4:55 AM425125.2-1.74ne6.08--
3:55 AM435025.65-3.48n5.21--
2:55 AM434824.67-2.61ne6.08--
1:55 AM444624.57-2.61nne5.21--
12:55 AM464123.63-2.61nne4.34--
High: 65ºf @3:55 PM    Low: 40ºf @5:55 AM     Approx. Precipitation / Rain Total: in.
Time (PST)Temp. (ºf)Humidity (%)Dew Point (ºf)Barometer (inHG)Wind Speed (mph)Wind DirectionWind Gust (mph)1hr. Precip / Rain Total (in.)Snow Depth
11:55 PM474023.94-2.61nne6.08--
10:55 PM513322.92-3.48nne6.08--
9:55 PM493925.13-2.61nne6.08--
8:55 PM484024.84-2.61nne6.08--
7:55 PM484527.68-2.61ene5.21--
6:55 PM494025.74-2.61nne6.95--
5:55 PM504630.04-3.48n7.82--
4:55 PM583530.51-1.74n6.95--
3:55 PM652225.23-3.48sw7.82--
2:55 PM652225.23-3.48ssw8.69--
1:55 PM642123.29-4.34sw9.56--
12:55 PM642022.13-3.48ssw7.82--
11:55 AM622121.63-4.34sw9.56--
10:55 AM621919.28-2.61wsw6.08--
9:55 AM612322.94-1.74sw4.34--
8:55 AM572420.58-2.61sw5.21--
7:55 AM435226.59-1.74nne5.21--
6:55 AM405123.35-2.61nne5.21--
5:55 AM405424.71-2.61nne5.21--
4:55 AM414722.33-2.61nne6.08--
3:55 AM405022.88-2.61nne5.21--
2:55 AM424522.22-2.61ene6.08--
1:55 AM414923.32-1.74ne6.08--
12:55 AM444121.83-3.48n6.95--
High: 60ºf @2:55 PM    Low: 36ºf @5:55 AM     Approx. Precipitation / Rain Total: in.
Time (PST)Temp. (ºf)Humidity (%)Dew Point (ºf)Barometer (inHG)Wind Speed (mph)Wind DirectionWind Gust (mph)1hr. Precip / Rain Total (in.)Snow Depth
11:55 PM424622.74-1.74nne6.08--
10:55 PM453820.94-2.61nne7.82--
9:55 PM463821.83-6.08n8.69--
8:55 PM434724.16-2.61nne5.21--
7:55 PM454223.3-2.61nne6.08--
6:55 PM454424.41-3.48nne8.69--
5:55 PM474023.94-2.61nne7.82--
4:55 PM543224.82-2.61nnw6.08--
3:55 PM602018.82-4.34ssw9.56--
2:55 PM602018.82-4.34wsw12.17--
1:55 PM602018.82-2.61se11.3--
12:55 PM582118.3-6.08ssw13.03--
11:55 AM562217.71-5.21ssw11.3--
10:55 AM562217.71-1.74ssw6.95--
9:55 AM532316.21-2.61s8.69--
8:55 AM502414.65-2.61sw6.08--
7:55 AM423717.64-2.61w6.95--
6:55 AM442712.19-6.08wsw16.51--
5:55 AM364516.74-2.61nw6.95--
4:55 AM384116.42-0.87nne7.82--
3:55 AM413314.13-3.48n11.3--
2:55 AM393815.57-3.48wsw9.56--
1:55 AM452612.2-3.48ssw14.77--
12:55 AM462411.26-5.21s22.59--
High: 60ºf @1:55 PM    Low: 37ºf @5:55 AM     Approx. Precipitation / Rain Total: in.
Time (PST)Temp. (ºf)Humidity (%)Dew Point (ºf)Barometer (inHG)Wind Speed (mph)Wind DirectionWind Gust (mph)1hr. Precip / Rain Total (in.)Snow Depth
11:55 PM50176.93-9.56n21.72--
10:55 PM51155.01-9.56nne24.33--
9:55 PM464927.92-1.74se10.43--
8:55 PM427534.66-2.61ne5.21--
7:55 PM437635.96-3.48nne6.08--
6:55 PM467137.13-0.87ene4.34--
5:55 PM476134.26-2.61nne5.21--
4:55 PM544935.28-0.87nw5.21--
3:55 PM583530.51-3.48sw6.95--
2:55 PM603129.28-3.48sw8.69--
1:55 PM602725.93-2.61sse7.82--
12:55 PM592725.07-2.61sse7.82--
11:55 AM573227.44-2.61s6.08--
10:55 AM573025.88-3.48sw6.08--
9:55 AM562924.2-1.74sse4.34--
8:55 AM533727.43-0.87s3.48--
7:55 AM406428.82-1.74nne5.21--
6:55 AM386627.67-1.74nne5.21--
5:55 AM376927.79-3.48ne4.34--
4:55 AM386828.39-2.61nne4.34--
3:55 AM396427.87-1.74nne4.34--
2:55 AM406127.65-2.61n5.21--
1:55 AM415726.95-1.74nne5.21--
12:55 AM425326.12-2.61nne6.08--
High: 62ºf @3:55 PM    Low: 37ºf @6:55 AM     Approx. Precipitation / Rain Total: in.
Time (PST)Temp. (ºf)Humidity (%)Dew Point (ºf)Barometer (inHG)Wind Speed (mph)Wind DirectionWind Gust (mph)1hr. Precip / Rain Total (in.)Snow Depth
11:55 PM415526.09-3.48nne6.08--
10:55 PM435226.59-3.48n6.08--
9:55 PM445327.98-2.61nne5.21--
8:55 PM455127.97-2.61nne6.08--
7:55 PM465229.37-1.74ne6.95--
6:55 PM465631.19-1.74nne3.48--
5:55 PM494629.13-2.61nne5.21--
4:55 PM534532.23-3.48nnw5.21--
3:55 PM622323.78-2.61ssw6.08--
2:55 PM622525.78-2.61ssw7.82--
1:55 PM612726.78-3.48sw7.82--
12:55 PM602423.11-3.48sw6.95--
11:55 AM582825.09-2.61ssw6.08--
10:55 AM563025.01-2.61ssw6.95--
9:55 AM553225.69-2.61ssw5.21--
8:55 AM533526.09-1.74ssw3.48--
7:55 AM416530.15-2.61-4.34--
6:55 AM377128.49-1.74ne5.21--
5:55 AM406328.44-2.61nne5.21--
4:55 AM416028.19-2.61nne6.08--
3:55 AM397130.41-2.61nne6.95--
2:55 AM436431.67-5.21nnw7.82--
1:55 AM426631.48-3.48n5.21--
12:55 AM427233.64-1.74nne5.21--
High: 57ºf @2:55 PM    Low: 38ºf @6:55 AM     Approx. Precipitation / Rain Total: in.
Time (PST)Temp. (ºf)Humidity (%)Dew Point (ºf)Barometer (inHG)Wind Speed (mph)Wind DirectionWind Gust (mph)1hr. Precip / Rain Total (in.)Snow Depth
11:55 PM427032.94-1.74nne5.21--
10:55 PM426029.13-2.61nne5.21--
9:55 PM436230.88-2.61nne6.08--
8:55 PM437234.6-2.61nne6.08--
7:55 PM447937.91-2.61nne4.34--
6:55 PM467638.87-2.61nne6.08--
5:55 PM467739.2-4.34n6.08--
4:55 PM526138.97-2.61wnw5.21--
3:55 PM575038.55-3.48ssw8.69--
2:55 PM574837.51-3.48sw9.56--
1:55 PM574938.03-5.21wsw9.56--
12:55 PM554936.19-4.34ssw9.56--
11:55 AM545437.73-3.48ssw7.82--
10:55 AM534934.36-3.48ssw6.08--
9:55 AM515535.41-2.61ssw6.08--
8:55 AM496336.96-0.87ssw3.48--
7:55 AM418737.43-2.61n4.34--
6:55 AM389035.33-3.48n6.95--
5:55 AM389035.33-3.48n6.08--
4:55 AM389135.61-3.48n5.21--
3:55 AM399136.6-2.61nne5.21--
2:55 AM409338.14-1.74nne4.34--
1:55 AM409438.41-3.48n6.08--
12:55 AM419439.41-2.61n4.34--
High: 54ºf @10:55 AM    Low: 37ºf @5:55 AM     Approx. Precipitation / Rain Total: in.
Time (PST)Temp. (ºf)Humidity (%)Dew Point (ºf)Barometer (inHG)Wind Speed (mph)Wind DirectionWind Gust (mph)1hr. Precip / Rain Total (in.)Snow Depth
11:55 PM409338.14-1.74nne4.34--
10:55 PM419539.68-1.74nne4.34--
9:55 PM429540.67-2.61n5.21--
8:55 PM449442.39-1.74n3.48--
7:55 PM469143.52---2.61--
6:55 PM469043.23-1.74nnw5.21--
5:55 PM478943.93-2.61w6.08--
4:55 PM498043.1-2.61sw9.56--
3:55 PM507140.97-4.34wsw10.43--
2:55 PM516338.85-6.95wsw10.43--
1:55 PM526339.8-5.21sw10.43--
12:55 PM536340.75-5.21sw8.69--
11:55 AM535738.18-3.48ssw7.82--
10:55 AM545236.78-2.61se6.08--
9:55 AM535637.73-1.74sse4.34--
8:55 AM515434.95---2.61--
7:55 AM417333.02-1.74ne3.48--
6:55 AM378432.62-2.61ne4.34--
5:55 AM378332.33-2.61ne4.34--
4:55 AM388132.7-2.61nne4.34--
3:55 AM388032.39-1.74nne4.34--
2:55 AM378232.03-1.74n4.34--
1:55 AM397431.43-2.61n4.34--
12:55 AM407332.06-1.74nne5.21--
High: 57ºf @1:55 PM    Low: 37ºf @3:55 AM     Approx. Precipitation / Rain Total: in.
Time (PST)Temp. (ºf)Humidity (%)Dew Point (ºf)Barometer (inHG)Wind Speed (mph)Wind DirectionWind Gust (mph)1hr. Precip / Rain Total (in.)Snow Depth
11:55 PM407231.71-2.61nne4.34--
10:55 PM407532.73-1.74nne5.21--
9:55 PM417734.35-2.61ne4.34--
8:55 PM436933.54-2.61n5.21--
7:55 PM447536.59-3.48n5.21--
6:55 PM457738.23-0.87nne3.48--
5:55 PM467337.84-1.74n4.34--
4:55 PM515836.75-1.74w9.56--
3:55 PM564333.82-5.21wsw9.56--
2:55 PM564132.64-5.21sw9.56--
1:55 PM574133.54-6.08sw9.56--
12:55 PM564534.96-4.34ssw9.56--
11:55 AM555137.21-3.48sw6.95--
10:55 AM545136.28-1.74s6.95--
9:55 AM535436.8-0.87ese6.08--
8:55 AM486135.2-2.61ene6.08--
7:55 AM398635.17-1.74ene4.34--
6:55 AM379034.34-1.74nne5.21--
4:55 AM388935.05-3.48nne5.21--
3:55 AM379034.34-1.74nne4.34--
2:55 AM388935.05-2.61nne4.34--
1:55 AM398735.46-1.74ne5.21--
12:55 AM418436.54-2.61nne6.08--
High: 54ºf @2:55 PM    Low: 37ºf @5:55 AM     Approx. Precipitation / Rain Total: in.
Time (PST)Temp. (ºf)Humidity (%)Dew Point (ºf)Barometer (inHG)Wind Speed (mph)Wind DirectionWind Gust (mph)1hr. Precip / Rain Total (in.)Snow Depth
11:55 PM408636.16-2.61n5.21--
10:55 PM418436.54-2.61n5.21--
9:55 PM418436.54-2.61nne5.21--
8:55 PM418737.43-2.61nne5.21--
7:55 PM448238.86-1.74nne3.48--
6:55 PM467739.2-0.87nne3.48--
5:55 PM477539.49-0.87n4.34--
4:55 PM506538.7-2.61wnw4.34--
3:55 PM545035.78-2.61s5.21--
2:55 PM545035.78-0.87wsw6.95--
1:55 PM535537.27-1.74se7.82--
12:55 PM506137.09-2.61ssw6.95--
11:55 AM525737.24-2.61ene7.82--
10:55 AM516539.65-2.61ese6.95--
9:55 AM497441.08-3.48se7.82--
8:55 AM477840.5-2.61se6.95--
7:55 AM408736.45-0.87nne4.34--
6:55 AM389436.43-1.74nne4.34--
5:55 AM379635.97-2.61n4.34--
4:55 AM379435.44-0.87n4.34--
3:55 AM409137.59-2.61nne6.08--
2:55 AM409338.14-4.34w7.82--
1:55 AM409538.69-2.61wsw6.08--
12:55 AM419639.95-2.61wnw4.34--
High: 52ºf @9:55 AM    Low: 42ºf @11:55 PM     Approx. Precipitation / Rain Total: in.
Time (PST)Temp. (ºf)Humidity (%)Dew Point (ºf)Barometer (inHG)Wind Speed (mph)Wind DirectionWind Gust (mph)1hr. Precip / Rain Total (in.)Snow Depth
11:55 PM429540.67-2.61w6.08--
10:55 PM449542.66-3.48w6.95--
9:55 PM459343.1-3.48w8.69--
8:55 PM469444.37-3.48wsw6.95--
7:55 PM479545.64-4.34sw8.69--
6:55 PM479445.36-5.21wsw13.9--
5:55 PM489045.21-6.08ssw13.9--
4:55 PM498745.3-6.08ssw15.64--
3:55 PM507943.75-4.34ssw13.03--
2:55 PM517543.36-5.21ssw13.9--
1:55 PM518045.05-6.95sw14.77--
12:55 PM528748.25-5.21ssw12.17--
11:55 AM509247.77-5.21sw11.3--
10:55 AM519349.05-4.34sw11.3--
9:55 AM5210052-3.48sw9.56--
8:55 AM5110051-4.34w8.69--
7:55 AM5010050-1.74wsw6.08--
6:55 AM4910049---3.48--
5:55 AM499948.73-0.87nne2.61--
4:55 AM489847.46---11.3--
3:55 AM479846.46-2.61ene8.69--
2:55 AM469745.2-3.48ne10.43--
1:55 AM459844.47-3.48e11.3--
12:55 AM459944.74-2.61ese11.3--
High: 53ºf @11:55 AM    Low: 44ºf @10:55 PM     Approx. Precipitation / Rain Total: in.
Time (PST)Temp. (ºf)Humidity (%)Dew Point (ºf)Barometer (inHG)Wind Speed (mph)Wind DirectionWind Gust (mph)1hr. Precip / Rain Total (in.)Snow Depth
11:55 PM459844.47-2.61e6.08--
10:55 PM449743.2-1.74ene6.95--
9:55 PM469945.73---2.61--
8:55 PM469945.73-0.87s4.34--
7:55 PM479846.46-3.48wsw6.08--
6:55 PM489947.73-4.34ssw8.69--
5:55 PM489847.46-3.48wsw6.95--
4:55 PM489546.64-4.34wsw7.82--
3:55 PM509348.06-2.61wnw6.08--
2:55 PM508846.59-4.34w8.69--
1:55 PM528046.02-4.34w9.56--
12:55 PM537043.48-6.95wsw11.3--
11:55 AM537745.98-6.08wsw10.43--
10:55 AM528547.63-5.21sw9.56--
9:55 AM518747.27-4.34wsw7.82--
8:55 AM508946.89-3.48wsw7.82--
7:55 AM479445.36-3.48wsw7.82--
6:55 AM469243.81-4.34w8.69--
5:55 AM469243.81-6.08w12.17--
4:55 AM479545.64-7.82wsw13.9--
3:55 AM489446.36-7.82wsw14.77--
2:55 AM499748.19-6.08wnw10.43--
1:55 AM499848.46-6.08wsw13.9--
12:55 AM509949.73-4.34wsw7.82--
High: 53ºf @9:55 AM    Low: 47ºf @1:55 PM     Approx. Precipitation / Rain Total: in.
Time (PST)Temp. (ºf)Humidity (%)Dew Point (ºf)Barometer (inHG)Wind Speed (mph)Wind DirectionWind Gust (mph)1hr. Precip / Rain Total (in.)Snow Depth
11:55 PM509849.46-4.34w12.17--
10:55 PM519850.45-8.69w16.51--
9:55 PM5210052-7.82w13.03--
8:55 PM5010050-3.48wnw6.08--
7:55 PM5010050-0.87e8.69--
6:55 PM499948.73-0.87wnw4.34--
5:55 PM489847.46-0.87ene3.48--
4:55 PM489847.46-0.87e4.34--
3:55 PM479746.19-1.74ne8.69--
2:55 PM479545.64-2.61nne11.3--
1:55 PM479746.19-4.34e9.56--
12:55 PM489546.64---4.34--
11:55 AM499146.49-1.74nw5.21--
10:55 AM518847.57-2.61wsw5.21--
9:55 AM536943.1-0.87ne3.48--
8:55 AM537043.48---2.61--
7:55 AM497039.65-0.87ne4.34--
6:55 AM477138.09-2.61nne6.08--
5:55 AM486938.32-2.61ne5.21--
4:55 AM477238.45-2.61n5.21--
3:55 AM487339.76-0.87nne4.34--
2:55 AM496738.53-0.87nne4.34--
1:55 AM496638.14-2.61n5.21--
12:55 AM486837.95-3.48nnw4.34--
High: 67ºf @12:55 PM    Low: 46ºf @5:55 AM     Approx. Precipitation / Rain Total: in.
Time (PST)Temp. (ºf)Humidity (%)Dew Point (ºf)Barometer (inHG)Wind Speed (mph)Wind DirectionWind Gust (mph)1hr. Precip / Rain Total (in.)Snow Depth
11:55 PM506137.09-1.74nne3.48--
10:55 PM486034.79-1.74nne5.21--
9:55 PM476033.84-3.48n5.21--
8:55 PM495332.62-2.61n5.21--
7:55 PM485934.36-2.61ne4.34--
6:55 PM496236.55-0.87nne4.34--
5:55 PM525837.69-0.87nne4.34--
4:55 PM566142.74-1.74nnw4.34--
3:55 PM604337.44-2.61wsw6.95--
2:55 PM624037.4-2.61wsw8.69--
1:55 PM643233.55-4.34wsw6.95--
12:55 PM672933.69-0.87sse5.21--
11:55 AM662630.13-0.87ese5.21--
10:55 AM663537.56-1.74ese6.08--
9:55 AM643435.07-1.74ese6.95--
8:55 AM604136.23-1.74e5.21--
7:55 AM505835.81-0.87nne4.34--
6:55 AM485833.94-2.61nne4.34--
5:55 AM466534.9-0.87ne4.34--
4:55 AM505132.59-1.74nne4.34--
3:55 AM514832.01-1.74ene4.34--
2:55 AM505534.48---6.08--
1:55 AM495533.54-2.61nne5.21--
12:55 AM524832.92-2.61ne5.21--
High: 60ºf @5:55 PM    Low: 51ºf @9:55 PM     Approx. Precipitation / Rain Total: in.
Time (PST)Temp. (ºf)Humidity (%)Dew Point (ºf)Barometer (inHG)Wind Speed (mph)Wind DirectionWind Gust (mph)1hr. Precip / Rain Total (in.)Snow Depth
11:55 PM544834.76-3.48ne6.95--
10:55 PM515836.75-1.74nne5.21--
9:55 PM515937.18-1.74n4.34--
8:55 PM525837.69-2.61n6.95--
7:55 PM526540.6-1.74nne3.48--
6:55 PM565238.62-2.61ene5.21--
5:55 PM604236.84-2.61ene6.95--
Past Weather Disclaimer Note regarding "Approx. Precipitation / Rain Total"

Currently

Fair 61°F
30.19in
Barometer
34%
Humidity
West 11.5mph
Wind
Fair

Past Weather Nearby

More Local Information

Bookmark and Share